Regional Weather Roundup
Issued by NWS

Home | Current Version | Previous Version | Graphics & Text | Print | Product List | Glossary On
Versions: 1 2 3 4 5 6 7 8 9 10 11 12 13 14 15 16 17 18 19 20 21 22 23 24 25 26 27 28 29 30 31 32 33 34 35 36 37 38 39 40 41 42 43 44 45 46 47 48 49 50
000
ASUS43 KLOT 212010
RWRIL

ILLINOIS REGIONAL WEATHER ROUNDUP
NATIONAL WEATHER SERVICE CHICAGO/ROMEOVILLE IL
200 PM CST FRI NOV 21 2014

NOTE: "FAIR" INDICATES FEW OR NO CLOUDS BELOW 12,000 FEET WITH NO
SIGNIFICANT WEATHER AND/OR OBSTRUCTIONS TO VISIBILITY.

* THESE STATIONS ARE NOT UNDER NWS QUALITY CONTROL. THEY ALSO MAY NOT
  REPORT WEATHER SUCH AS PRECIPITATION OR FOG.

ILZ001-002-007-009-015-016-024-212100-
NORTHWEST ILLINOIS

CITY           SKY/WX    TMP DP  RH WIND       PRES   REMARKS
MOLINE         SUNNY     35   6  29 SE15      30.30F WCI  25
STERLING*      SUNNY     36   3  25 S7        30.32F WCI  30
SAVANNA*       SUNNY     35   3  26 S12       30.29  WCI  27
$$

ILZ003-004-008-010-011-017-018-212100-
NORTH CENTRAL ILLINOIS

CITY           SKY/WX    TMP DP  RH WIND       PRES   REMARKS
ROCKFORD       MOSUNNY   34   3  27 S18       30.34F WCI  23
FREEPORT*      SUNNY     32   4  30 S16       30.32F WCI  21
ROCHELLE*      SUNNY     32   5  31 S16       30.33F WCI  22
DE KALB*       SUNNY     31   1  28 S17       30.34F WCI  19
PERU*          SUNNY     36   4  26 S18       30.34F WCI  25
$$

ILZ005-006-012>014-019>023-212100-
NORTHEAST ILLINOIS

CITY           SKY/WX    TMP DP  RH WIND       PRES   REMARKS
CHICAGO-OHARE  MOSUNNY   32   1  26 S10       30.34F WCI  24
CHICAGO-MIDWAY SUNNY     34   3  27 S13G21    30.36F WCI  25
AURORA         SUNNY     34  -1  22 S16       30.35F WCI  24
LANSING*       SUNNY     33   6  31 S14       30.39F WCI  24
JOLIET*        SUNNY     33   0  24 S9G17     30.37F WCI  25
WAUKEGAN       SUNNY     32  -2  23 S14       30.33F WCI  22
DUPAGE AIRPORT SUNNY     32  -1  24 S14       30.34F WCI  22
KANKAKEE*      SUNNY     34   6  30 SE10      30.39F WCI  26
WHEELING       SUNNY     32  -1  24 S16       30.36F WCI  21
MORRIS*        SUNNY     34   6  30 S16       30.36F WCI  24
ROMEOVILLE*    SUNNY     33   0  24 S16       30.36F WCI  22
NORTHERLY ISL    N/A     33   3  28 S9          N/A  WCI  25
$$

LMZ740>746-212100-
SOUTHERN LAKE MICHIGAN

STATION/POSITION SKY/WX   TEMP    WIND        PRES    VSBY  WAVE
                          AIR SEA DIR/SP/G                  HT/PER
                          (F)     (DEG/KT/KT) (MB)    (MI)  (FT/S)
SOUTHERN BUOY              30 43  190/ 16/ 19 1029.1F         2/ 3
WAUKEGAN HARBOR            32     190/ 14/ 17   N/A
HARRISON CRIB              30     180/ 14/ 18   N/A
BURNHAM HARBOR             34     150/ 12/ 14   N/A
CALUMET HARBOR             32     180/  9/ 13 1027.2F
MICHIGAN CITY              31     160/ 13/ 17   N/A
$$

ILZ025>027-034>036-040-047-049-050-058-095>099-212100-
WEST-CENTRAL ILLINOIS

CITY           SKY/WX    TMP DP  RH WIND       PRES   REMARKS
QUINCY         PTSUNNY   39  16  39 S14       30.28F WCI  31
GALESBURG*     SUNNY     35   7  31 SE9       30.30F WCI  27
MACOMB*        SUNNY     37  10  34 SE16      30.32F WCI  27
JACKSONVILLE*  MOSUNNY   38  15  38 SE14      30.33F WCI  30
PITTSFIELD*    MOSUNNY   40  19  42 SE13      30.31F
$$

ILZ028>032-037-038-041>044-048-051>054-059>061-212100-
CENTRAL ILLINOIS

CITY           SKY/WX    TMP DP  RH WIND       PRES   REMARKS
PONTIAC        SUNNY     36   6  28 SE15      30.37F WCI  26
BLOOMINGTON    SUNNY     36   8  31 S16       30.35F WCI  26
DECATUR        SUNNY     37  12  35 SE13      30.37F WCI  29
PEORIA         SUNNY     38   6  26 S12       30.34F WCI  30
LACON*         SUNNY     36   2  24 S14       30.33F WCI  27
LINCOLN*       SUNNY     38  11  33 SE10      30.36F WCI  31
SPRINGFIELD    MOSUNNY   38  13  35 SE15      30.35F WCI  29
TAYLORVILLE    PTSUNNY   34  14  44 SE12      30.35F WCI  25
$$

ILZ033-039-045-046-055>057-062-063-212100-
EAST-CENTRAL ILLINOIS

CITY           SKY/WX    TMP DP  RH WIND       PRES   REMARKS
CHAMPAIGN      SUNNY     35  11  36 SE15      30.38F WCI  25
DANVILLE*      SUNNY     32  11  40 SE8       30.37F WCI  25
RANTOUL*       SUNNY     35   7  30 SE13      30.38F WCI  27
MATTOON        SUNNY     35  13  40 S12       30.38F WCI  27
PARIS*         SUNNY     35  15  43 SE7       30.41S WCI  29
$$

ILZ079-100>102-212100-
SOUTHWEST ILLINOIS

CITY           SKY/WX    TMP DP  RH WIND       PRES   REMARKS
ALTON          SUNNY     39  14  35 SE12      30.34F WCI  32
BELLEVILLE     CLOUDY    40  20  44 SE9       30.33F
CAHOKIA*       PTSUNNY   41  21  44 SE10      30.33F
SPARTA*        CLOUDY    41  22  47 SE10      30.34F
$$

ILZ064>066-069>071-074>076-080>082-084>086-088>090-092>094-212100-
SOUTH-CENTRAL ILLINOIS

CITY           SKY/WX    TMP DP  RH WIND       PRES   REMARKS
CARBONDALE     MOSUNNY   46  21  37 SE12      30.34F
CAIRO*         CLOUDY    49  26  40 E8        30.34F
EFFINGHAM*     SUNNY     38  10  31 SE12      30.39F WCI  31
MARION         PTSUNNY   46  21  36 SE12      30.35F
MT. VERNON     SUNNY     43  18  36 E12       30.38F
CENTRALIA*     SUNNY     41  17  38 E8        30.36F
SALEM*           N/A     42  15  34 SE8       30.37F
METROPOLIS*    PTSUNNY   47  25  41 SE7       30.34F
$$

ILZ067-068-072-073-078-083-087-091-212100-
SOUTHEAST ILLINOIS

CITY           SKY/WX    TMP DP  RH WIND       PRES   REMARKS
LAWRENCEVILLE  SUNNY     39  15  37 SE8       30.43F WCI  33
FLORA*         SUNNY     39  17  40 SE12      30.39F WCI  32
FAIRFIELD*     SUNNY     41  17  38 E13       30.38F
HARRISBURG*    SUNNY     43  24  47 E12       30.38F
ROBINSON*      SUNNY     38  12  35 SE10      30.43F WCI  30
CARMI*         SUNNY     44  22  42 E12       30.39F
$$

ABBREVIATIONS USED IN REMARKS
   TC - TEMPERATURE IN CELSIUS
  WCI - WIND CHILL INDEX
   HX - HEAT INDEX
  VSB - VISIBILITY
$$



USA.gov is the U.S. government's official web portal to all federal, state and local government web resources and services.